Location: Caltech
(34.1382°N, 118.1253°W)
Time: 05:52:30
(UTC-07:00)

HO-68 - Visible Passes

Search period start: 03 September 2015 00:00
Search period end: 13 September 2015 00:00
Orbit: 1193 x 1204 km, 100.2° (Epoch: 02 September)

Date Brightness Start Highest point End Pass type
(mag) Time Alt. Az. Time Alt. Az. Time Alt. Az.
03 Sep ? 20:21:35 10° SSE 20:28:37 65° ENE 20:35:44 10° N visible
03 Sep ? 22:11:51 10° SW 22:16:56 20° W 22:21:41 10° NW visible
04 Sep ? 20:05:01 10° SE 20:11:48 49° ENE 20:18:40 10° N visible
04 Sep ? 21:53:50 10° SSW 21:59:48 27° W 22:05:34 10° NW visible
05 Sep ? 19:48:39 10° SE 19:55:00 37° ENE 20:01:30 10° N visible
05 Sep ? 21:36:11 10° SSW 21:42:42 36° W 21:49:10 10° NNW visible
06 Sep ? 19:32:29 10° ESE 19:38:14 28° ENE 19:44:12 10° N visible
06 Sep ? 21:18:47 10° S 21:25:41 49° W 21:32:35 10° NNW visible
07 Sep ? 21:01:39 10° S 21:08:43 66° WSW 21:15:52 10° NNW visible
08 Sep ? 20:44:36 10° SSE 20:51:47 86° WSW 20:59:02 10° NNW visible
08 Sep ? 22:38:03 10° WSW 22:40:36 11° W 22:42:31 10° WNW visible
09 Sep ? 20:27:48 10° SSE 20:34:54 73° ENE 20:42:06 10° N visible
09 Sep ? 22:18:46 10° SW 22:23:21 17° W 22:27:33 10° NW visible
10 Sep ? 20:11:10 10° SE 20:18:04 55° ENE 20:25:04 10° N visible
10 Sep ? 22:00:32 10° SW 22:06:11 24° W 22:11:37 10° NW visible
11 Sep ? 19:54:42 10° SE 20:01:15 42° ENE 20:07:56 10° N visible
11 Sep ? 21:42:55 11° SSW 21:49:05 32° W 21:55:19 10° NW visible
12 Sep ? 19:38:26 10° SE 19:44:29 32° ENE 19:50:42 10° N visible
12 Sep ? 21:25:53 13° SSW 21:32:02 44° W 21:38:47 10° NNW visible
